THOR ABLESTAR DEB

Satellite information

Favourite Embed

Satellite Type and Status

DEBRISIN ORBIT

Key statistics

Satellite THOR ABLESTAR DEB at a glance.

Uptime

21991

Days in orbit

Revolutions

≈ 13.7

Per day

Orbit

LEO

Low Earth Orbit

Inclination

89.9

Latest

Satellite identification and parameters

Extended collection of information and parameters for THOR ABLESTAR DEB.

Object identification

Identified? True

Debris? True

Object name: THOR ABLESTAR DEB

International designator: 1965-048D

Object number (NORAD): 1435

Object ID (CCSDS): 1435

Country: UNITED STATES OF AMERICA (US)

Current information (Y/N): Y

RCS size: SMALL

Orbital parameters

Period: 104.888 minutes

Inclination: 89.8852 deg

SMA: 7367.325 km

Apoapsis: 1034.095 km

Periapsis: 944.285 km

RAAN: 293.5359 deg

Eccentricy: 0.00609511

Argument of periapsis: 84.9945 deg

Mean anomaly: 96.1494 deg

Mean motion: 13.72897195 rev/day

Mean motion (dot): 0.00000749 rev/day2

B* drag term: 0.0007905068 1/REarth

Two-line elements (TLE)

Creation date: Sept. 8, 2025, 3:16 a.m.

Reference frame: TEME

Reference center: EARTH

Epoch: Sept. 7, 2025, 9:06 p.m. UTC

TLE line 0: 0 THOR ABLESTAR DEB

TLE line 1: 1 01435U 65048D 25250.87963027 .00000749 00000-0 79051-3 0 9997

TLE line 2: 2 01435 89.8852 293.5359 0060951 84.9945 96.1494 13.72897195988225

Live tracking on map

Real-time ground track for satellite THOR ABLESTAR DEB.

In-orbit conjunctions

A list of the most updated potential collisions computed for object THOR ABLESTAR DEB.

Target Orbit TCA Probability of collision Miss distance Type
THORAD AGENA D DEB SSO 2025-06-26 19:51:27 0.0001013306 172.0 (m) DEBRIS
COSMOS 1275 DEB LEO 2025-04-05 11:09:34 0.0001565633 95.0 (m) DEBRIS

Associated space launch

The Transit-O series of satellites that closely followed the design of Transit 5C-1 were also called “Oscars” (Oscar is the phonetic alphabet for “O”, i. e., operational). They were also called NNS (Navy Navigation Satellite) or shortened NavSat.

THOR ABLESTAR DEB was lifted into orbit during the mission ‘Thor DM-21 Ablestar | Transit-O 4’, on board a Thor DM-21 Ablestar space rocket.

The launch took place on June 24, 1965, 10:35 p.m. from Space Launch Complex 2E.

For more information about the launch, click the button.

Launch to space Thor DM-21 Ablestar | Transit-O 4
Thor DM-21 Ablestar | Transit-O 4

Agency: N/A

Status: Launch Successful

Launch date: June 24, 1965, 10:35 p.m. UTC

Rocket: Thor DM-21 Ablestar

Launch pad: Space Launch Complex 2E

Location: Vandenberg SFB, CA, USA

...

Latest news about this satellite

There are no fresh news available about this satellite. Check back as we update our databases every day.


Newsletter sign-up

Weekly statistics, charts and insights to help you stay on top of the space industry.